• In Romania
  • List of Countries
  • For 7 days
  • Water Temperature
  • Satellite Maps
  • Weather Map
  • Weather Widgets
  • user-avatar
    Login

    Hourly Weather Escaldes-Engordany

    Today, 30 March, Thursday

    Time Temperature Precipitation Wind Pressure Humidity
    00:00 +1°C° 0 mm 0 mps 641 mmHg 89%
    01:00 +1°C° 0 mm 0 mps 641 mmHg 88%
    02:00 +2°C° 0 mm 1 mps 641 mmHg 88%
    03:00 +2°C° 0 mm 1 mps 641 mmHg 87%
    04:00 +2°C° 0 mm 1 mps 641 mmHg 87%
    05:00 +2°C° 0 mm 1 mps 641 mmHg 87%
    06:00 +3°C° 0 mm 1 mps 641 mmHg 87%
    07:00 +6°C° 0 mm 1 mps 642 mmHg 78%
    08:00 +9°C° 0 mm 1 mps 644 mmHg 69%
    09:00 +12°C° 0 mm 2 mps 645 mmHg 60%
    10:00 +13°C° 0 mm 2 mps 645 mmHg 55%
    11:00 +14°C° 0 mm 2 mps 645 mmHg 50%
    12:00 +14°C° 0 mm 3 mps 645 mmHg 45%
    13:00 +14°C° 0 mm 3 mps 645 mmHg 45%
    14:00 +14°C° 0 mm 3 mps 645 mmHg 45%
    15:00 +14°C° 0 mm 3 mps 644 mmHg 45%
    16:00 +12°C° 0 mm 3 mps 643 mmHg 55%
    17:00 +9°C° 0 mm 2 mps 642 mmHg 65%
    18:00 +7°C° 0 mm 2 mps 641 mmHg 74%
    19:00 +6°C° 0 mm 2 mps 641 mmHg 77%
    20:00 +4°C° 0 mm 2 mps 641 mmHg 80%
    21:00 +3°C° 0 mm 2 mps 641 mmHg 82%
    22:00 +3°C° 0 mm 2 mps 641 mmHg 80%
    23:00 +3°C° 0 mm 2 mps 640 mmHg 79%

    Tomorrow, 31 March, Friday

    Time Temperature Precipitation Wind Pressure Humidity
    00:00 +3°C° 0 mm 2 mps 640 mmHg 77%
    01:00 +3°C° 0 mm 2 mps 640 mmHg 75%
    02:00 +3°C° 0 mm 2 mps 640 mmHg 73%
    03:00 +3°C° 0 mm 2 mps 639 mmHg 71%
    04:00 +4°C° 0 mm 1 mps 639 mmHg 70%
    05:00 +4°C° 0 mm 1 mps 639 mmHg 68%
    06:00 +4°C° 0 mm 1 mps 639 mmHg 67%
    07:00 +6°C° 0 mm 1 mps 640 mmHg 62%
    08:00 +8°C° 0 mm 1 mps 641 mmHg 56%
    09:00 +9°C° 0 mm 1 mps 642 mmHg 51%
    10:00 +9°C° 0 mm 2 mps 642 mmHg 51%
    11:00 +10°C° 0 mm 2 mps 641 mmHg 51%
    12:00 +11°C° 0 mm 3 mps 641 mmHg 51%
    13:00 +11°C° 0.1 mm 3 mps 641 mmHg 52%
    14:00 +11°C° 0.1 mm 3 mps 640 mmHg 53%
    15:00 +11°C° 0.1 mm 3 mps 640 mmHg 55%
    16:00 +10°C° 0.4 mm 3 mps 639 mmHg 64%
    17:00 +8°C° 0.4 mm 2 mps 638 mmHg 74%
    18:00 +6°C° 0.4 mm 2 mps 637 mmHg 83%
    19:00 +5°C° 0.4 mm 2 mps 637 mmHg 87%
    20:00 +5°C° 0.4 mm 2 mps 637 mmHg 90%
    21:00 +4°C° 0.4 mm 2 mps 636 mmHg 94%
    22:00 +4°C° 0.9 mm 2 mps 636 mmHg 95%
    23:00 +4°C° 0.9 mm 1 mps 636 mmHg 96%

    Day after tomorrow, 1 April, Saturday

    Time Temperature Precipitation Wind Pressure Humidity
    00:00 +4°C° 0.9 mm 1 mps 636 mmHg 97%
    01:00 +3°C° 1.1 mm 1 mps 635 mmHg 96%
    02:00 +2°C° 1.1 mm 2 mps 635 mmHg 96%
    03:00 +2°C° 1.1 mm 2 mps 635 mmHg 95%
    04:00 +1°C° 0.3 mm 2 mps 635 mmHg 94%
    05:00 0°C° 0.3 mm 3 mps 635 mmHg 92%
    06:00 -1°C° 0.3 mm 3 mps 635 mmHg 91%
    07:00 +1°C° 0.1 mm 3 mps 636 mmHg 85%
    08:00 +2°C° 0.1 mm 3 mps 637 mmHg 78%
    09:00 +4°C° 0.1 mm 3 mps 637 mmHg 72%
    10:00 +4°C° 0.3 mm 3 mps 638 mmHg 69%
    11:00 +5°C° 0.3 mm 4 mps 638 mmHg 65%
    12:00 +6°C° 0.3 mm 4 mps 638 mmHg 62%
    13:00 +6°C° 0.4 mm 4 mps 638 mmHg 63%
    14:00 +5°C° 0.4 mm 4 mps 638 mmHg 64%
    15:00 +5°C° 0.4 mm 4 mps 638 mmHg 65%
    16:00 +4°C° 0.2 mm 3 mps 637 mmHg 71%
    17:00 +3°C° 0.2 mm 3 mps 637 mmHg 76%
    18:00 +2°C° 0.2 mm 3 mps 637 mmHg 82%
    19:00 +1°C° 0 mm 3 mps 637 mmHg 82%
    20:00 0°C° 0 mm 3 mps 637 mmHg 82%
    21:00 -1°C° 0 mm 3 mps 637 mmHg 83%
    22:00 -1°C° 0 mm 3 mps 637 mmHg 83%
    23:00 -1°C° 0 mm 3 mps 637 mmHg 84%

    2 April, Sunday

    Time Temperature Precipitation Wind Pressure Humidity
    00:00 -1°C° 0 mm 3 mps 637 mmHg 85%
    01:00 -1°C° 0 mm 3 mps 637 mmHg 84%
    02:00 -1°C° 0 mm 3 mps 637 mmHg 83%
    03:00 -1°C° 0 mm 3 mps 637 mmHg 82%
    04:00 -1°C° 0 mm 3 mps 637 mmHg 82%
    05:00 -1°C° 0 mm 3 mps 638 mmHg 82%
    06:00 -1°C° 0 mm 3 mps 638 mmHg 82%
    07:00 +1°C° 0 mm 3 mps 639 mmHg 76%
    08:00 +2°C° 0 mm 3 mps 640 mmHg 70%
    09:00 +4°C° 0 mm 3 mps 641 mmHg 64%
    10:00 +5°C° 0 mm 3 mps 641 mmHg 60%
    11:00 +7°C° 0 mm 3 mps 642 mmHg 57%
    12:00 +9°C° 0 mm 3 mps 642 mmHg 54%
    13:00 +8°C° 0 mm 3 mps 642 mmHg 55%
    14:00 +8°C° 0 mm 3 mps 642 mmHg 56%
    15:00 +8°C° 0 mm 3 mps 641 mmHg 58%
    16:00 +7°C° 0 mm 2 mps 641 mmHg 65%
    17:00 +5°C° 0 mm 2 mps 641 mmHg 73%
    18:00 +4°C° 0 mm 2 mps 641 mmHg 81%
    19:00 +3°C° 0 mm 2 mps 641 mmHg 82%
    20:00 +3°C° 0 mm 2 mps 641 mmHg 84%
    21:00 +2°C° 0 mm 2 mps 642 mmHg 85%
    22:00 +2°C° 0 mm 2 mps 642 mmHg 85%
    23:00 +1°C° 0 mm 2 mps 642 mmHg 85%

    3 April, Monday

    Time Temperature Precipitation Wind Pressure Humidity
    00:00 +1°C° 0 mm 2 mps 642 mmHg 86%
    01:00 +1°C° 0 mm 2 mps 642 mmHg 86%
    02:00 +1°C° 0 mm 2 mps 641 mmHg 87%
    03:00 +1°C° 0 mm 2 mps 641 mmHg 87%
    04:00 +1°C° 0 mm 2 mps 641 mmHg 87%
    05:00 +1°C° 0 mm 2 mps 642 mmHg 87%
    06:00 +1°C° 0 mm 2 mps 642 mmHg 86%
    07:00 +3°C° 0 mm 2 mps 643 mmHg 77%
    08:00 +6°C° 0 mm 2 mps 644 mmHg 67%
    09:00 +9°C° 0 mm 2 mps 645 mmHg 58%
    10:00 +10°C° 0 mm 2 mps 645 mmHg 55%
    11:00 +12°C° 0 mm 2 mps 645 mmHg 52%
    12:00 +13°C° 0 mm 2 mps 646 mmHg 49%
    13:00 +13°C° 0 mm 2 mps 645 mmHg 51%
    14:00 +13°C° 0 mm 2 mps 645 mmHg 53%
    15:00 +13°C° 0 mm 2 mps 645 mmHg 55%
    16:00 +10°C° 0 mm 2 mps 644 mmHg 64%
    17:00 +8°C° 0 mm 2 mps 644 mmHg 73%
    18:00 +7°C° 0 mm 2 mps 643 mmHg 82%
    19:00 +5°C° 0 mm 2 mps 643 mmHg 84%
    20:00 +4°C° 0 mm 2 mps 643 mmHg 86%
    21:00 +3°C° 0 mm 2 mps 643 mmHg 89%
    22:00 +3°C° 0 mm 2 mps 643 mmHg 87%
    23:00 +3°C° 0 mm 2 mps 643 mmHg 84%

    4 April, Tuesday

    Time Temperature Precipitation Wind Pressure Humidity
    00:00 +3°C° 0 mm 2 mps 643 mmHg 82%
    01:00 +3°C° 0 mm 2 mps 643 mmHg 84%
    02:00 +3°C° 0 mm 2 mps 642 mmHg 85%
    03:00 +3°C° 0 mm 2 mps 642 mmHg 86%
    04:00 +3°C° 0 mm 2 mps 642 mmHg 86%
    05:00 +3°C° 0 mm 2 mps 642 mmHg 86%
    06:00 +3°C° 0 mm 2 mps 642 mmHg 86%
    07:00 +5°C° 0 mm 2 mps 643 mmHg 77%
    08:00 +8°C° 0 mm 2 mps 644 mmHg 67%
    09:00 +10°C° 0 mm 2 mps 645 mmHg 58%
    10:00 +12°C° 0 mm 2 mps 645 mmHg 53%
    11:00 +13°C° 0 mm 2 mps 645 mmHg 49%
    12:00 +14°C° 0 mm 2 mps 646 mmHg 44%
    13:00 +14°C° 0 mm 2 mps 645 mmHg 46%
    14:00 +13°C° 0 mm 3 mps 645 mmHg 47%
    15:00 +13°C° 0 mm 3 mps 645 mmHg 48%
    16:00 +12°C° 0 mm 2 mps 644 mmHg 59%
    17:00 +9°C° 0 mm 2 mps 644 mmHg 69%
    18:00 +8°C° 0 mm 2 mps 643 mmHg 79%
    19:00 +7°C° 0 mm 2 mps 643 mmHg 82%
    20:00 +5°C° 0 mm 2 mps 643 mmHg 84%
    21:00 +4°C° 0 mm 2 mps 643 mmHg 87%
    22:00 +4°C° 0 mm 2 mps 642 mmHg 83%
    23:00 +3°C° 0 mm 2 mps 642 mmHg 80%
    Show more